Girona, Spain

11:21 AM CET on January 16, 2018 (GMT +0100)
Girona

Weather History for LEGE - December, 2012

Change the Weather History Date:

Wednesday, December 5, 2012

  Actual Average Record
Temperature  
Mean Temperature 45 °F -  
Max Temperature 58 °F 55 °F 75 °F (2006)
Min Temperature 32 °F 36 °F 25 °F (2017)
Degree Days  
Heating Degree Days 20    
Moisture  
Dew Point 34 °F    
Average Humidity 74    
Maximum Humidity 100    
Minimum Humidity 38    
Precipitation  
Precipitation 0.00 in 0.06 in - ()
Sea Level Pressure  
Sea Level Pressure 29.88 in    
Wind  
Wind Speed 2 mph ()    
Max Wind Speed 10 mph    
Max Gust Speed -    
Visibility 6.7 miles    
Events      
Averages and records for this station are not official NWS values.
T = Trace of Precipitation, MM = Missing Value Source: Averaged Metar Reports

Daily Weather History Graph

Daily Weather History Graph

Search for Another Location

Airport or City:

Trip Planner

Search our weather history database for the weather conditions in past years. The results will help you decide how hot, cold, wet, or windy it might be!

Date:

Astronomy

Dec. 05, 2012 Rise Set
Actual Time 8:01 AM CET 5:17 PM CET
Civil Twilight 7:30 AM CET 5:49 PM CET
Nautical Twilight 6:55 AM CET 6:24 PM CET
Astronomical Twilight 6:21 AM CET 6:57 PM CET
Moon 11:55 PM CET (12/5) 12:13 PM CET (12/5)
Length of Visible Light 10h 19m
Length of Day
9h 16m
Waning Gibbous, 62% of the Moon is Illuminated
Dec 5
Waning Gibbous
Dec 6
Last Quarter
Dec 13
New
Dec 20
First Quarter
Dec 28
Full

Hourly Weather History & Observations

Time (CET) Temp. Windchill Dew Point Humidity Pressure Visibility Wind Dir Wind Speed Gust Speed Precip Events Conditions
12:00 AM 35.6 °F - 33.8 °F 93% 29.92 in 6.2 mi Variable 2.3 mph - N/A   Partly Cloudy
12:30 AM 33.8 °F 30.8 °F 33.8 °F 100% 29.92 in 6.2 mi NE 3.5 mph - N/A   Partly Cloudy
1:00 AM 36 °F - 34 °F 89% 29.91 in - Calm Calm - -  
1:00 AM 35.6 °F - 35.6 °F 100% 29.89 in 6.2 mi Calm Calm - N/A   Partly Cloudy
1:30 AM 33.8 °F - 33.8 °F 100% 29.89 in 6.2 mi SSW 2.3 mph - N/A   Partly Cloudy
2:00 AM 35.6 °F - 35.6 °F 100% 29.89 in 6.2 mi Calm Calm - N/A   Partly Cloudy
2:30 AM 35.6 °F - 35.6 °F 100% 29.89 in 6.2 mi Calm Calm - N/A   Partly Cloudy
3:00 AM 35.6 °F - 35.6 °F 100% 29.86 in 6.2 mi Calm Calm - N/A   Partly Cloudy
3:30 AM 35.6 °F - 33.8 °F 93% 29.86 in 6.2 mi Variable 2.3 mph - N/A   Partly Cloudy
4:00 AM 39.2 °F 37.0 °F 30.2 °F 70% 29.86 in 6.2 mi WNW 3.5 mph - N/A   Scattered Clouds
4:30 AM 33.8 °F - 30.2 °F 87% 29.86 in 6.2 mi Variable 1.2 mph - N/A   Scattered Clouds
5:00 AM 41.0 °F 39.0 °F 32.0 °F 70% 29.83 in 6.2 mi NW 3.5 mph - N/A   Scattered Clouds
5:30 AM 42.8 °F 39.3 °F 30.2 °F 61% 29.83 in 6.2 mi NW 5.8 mph - N/A   Scattered Clouds
6:00 AM 41.0 °F 38.0 °F 32.0 °F 70% 29.83 in 6.2 mi NW 4.6 mph - N/A   Scattered Clouds
6:30 AM 32.0 °F - 28.4 °F 87% 29.83 in 6.2 mi Variable 2.3 mph - N/A   Partly Cloudy
7:00 AM 35 °F - 31 °F 78% 29.85 in - Calm Calm - -  
7:00 AM 32.0 °F - 30.2 °F 93% 29.83 in 6.2 mi Calm Calm - N/A   Partly Cloudy
7:30 AM 33.8 °F - 30.2 °F 87% 29.86 in 6.2 mi Calm Calm - N/A   Partly Cloudy
8:00 AM 33.8 °F - 28.4 °F 81% 29.86 in 6.2 mi Calm Calm - N/A   Partly Cloudy
8:30 AM 33.8 °F - 30.2 °F 87% 29.86 in 6.2 mi Calm Calm - N/A   Partly Cloudy
9:00 AM 35.6 °F - 32.0 °F 87% 29.86 in 6.2 mi Calm Calm - N/A   Partly Cloudy
9:30 AM 41.0 °F - 32.0 °F 70% 29.86 in 6.2 mi Calm Calm - N/A   Partly Cloudy
10:00 AM 41.0 °F - 33.8 °F 76% 29.86 in 6.2 mi Variable 1.2 mph - N/A   Partly Cloudy
10:30 AM 46.4 °F - 35.6 °F 66% 29.86 in 6.2 mi West 2.3 mph - N/A   Partly Cloudy
11:00 AM 50.0 °F - 33.8 °F 54% 29.86 in 6.2 mi West 4.6 mph - N/A   Partly Cloudy
11:30 AM 50.0 °F - 33.8 °F 54% 29.86 in 6.2 mi NW 5.8 mph - N/A   Partly Cloudy
12:00 PM 51.8 °F - 32.0 °F 47% 29.89 in 6.2 mi North 5.8 mph - N/A   Partly Cloudy
12:30 PM 51.8 °F - 32.0 °F 47% 29.86 in 6.2 mi NNE 3.5 mph - N/A   Partly Cloudy
1:00 PM 54 °F - 36 °F 38% 29.86 in 19 mi NNE 2.3 mph - -   Scattered Clouds
1:00 PM 51.8 °F - 33.8 °F 50% 29.86 in 6.2 mi NNE 4.6 mph - N/A   Partly Cloudy
1:30 PM 53.6 °F - 33.8 °F 47% 29.86 in 6.2 mi WSW 2.3 mph - N/A   Partly Cloudy
2:00 PM 55.4 °F - 32.0 °F 41% 29.86 in 6.2 mi Calm Calm - N/A   Partly Cloudy
4:00 PM 55.4 °F - 33.8 °F 44% 29.83 in 6.2 mi SSE 3.5 mph - N/A   Partly Cloudy
4:30 PM 51.8 °F - 35.6 °F 54% 29.86 in 6.2 mi South 10.4 mph - N/A   Partly Cloudy
5:00 PM 50.0 °F - 37.4 °F 62% 29.86 in 6.2 mi South 4.6 mph - N/A   Partly Cloudy
5:30 PM 48.2 °F - 35.6 °F 62% 29.86 in 6.2 mi SW 3.5 mph - N/A   Partly Cloudy
6:00 PM 46.4 °F 42.9 °F 37.4 °F 71% 29.86 in 6.2 mi SSW 6.9 mph - N/A   Partly Cloudy
6:30 PM 46.4 °F 45.2 °F 35.6 °F 66% 29.89 in 6.2 mi SW 3.5 mph - N/A   Partly Cloudy
7:00 PM 47 °F - 37 °F 60% 29.90 in 19 mi WSW 3.5 mph - -   Scattered Clouds
7:00 PM 46.4 °F - 37.4 °F 71% 29.89 in 6.2 mi Variable 2.3 mph - N/A   Partly Cloudy
7:30 PM 44.6 °F - 37.4 °F 76% 29.92 in 6.2 mi Calm Calm - N/A   Partly Cloudy
8:00 PM 44.6 °F - 37.4 °F 76% 29.92 in 6.2 mi NE 2.3 mph - N/A   Partly Cloudy
8:30 PM 44.6 °F 42.2 °F 37.4 °F 76% 29.92 in 6.2 mi NNE 4.6 mph - N/A   Partly Cloudy
9:00 PM 41.0 °F - 35.6 °F 81% 29.92 in 6.2 mi Calm Calm - N/A   Partly Cloudy
9:30 PM 39.2 °F - 35.6 °F 87% 29.92 in 6.2 mi North 1.2 mph - N/A   Partly Cloudy
10:00 PM 42.8 °F 41.1 °F 35.6 °F 76% 29.92 in 6.2 mi NNW 3.5 mph - N/A   Partly Cloudy
10:30 PM 41.0 °F 37.1 °F 35.6 °F 81% 29.95 in 6.2 mi SE 5.8 mph - N/A   Partly Cloudy
11:00 PM 39.2 °F - 35.6 °F 87% 29.95 in 6.2 mi Variable 1.2 mph - N/A   Partly Cloudy
11:30 PM 39.2 °F 37.0 °F 35.6 °F 87% 29.95 in 6.2 mi West 3.5 mph - N/A   Partly Cloudy